Location: ???????
(55.4362°N, 38.1183°E)
Time: 03:43:11
(UTC+00:00)

RS-44 - Visible Passes

Search period start: 29 November 2021 00:00
Search period end: 09 December 2021 00:00
Orbit: 1174 x 1511 km, 82.5° (Epoch: 28 November)

Date Brightness Start Highest point End Pass type
(mag) Time Alt. Az. Time Alt. Az. Time Alt. Az.
29 Nov ? 01:34:22 10° N 01:38:51 17° NE 01:43:27 10° E visible
29 Nov ? 03:27:07 10° N 03:34:17 53° ENE 03:41:52 10° SE visible
29 Nov ? 18:22:28 10° N 18:22:28 10° N 18:22:33 10° N visible
29 Nov ? 20:15:02 11° N 20:15:02 11° N 20:15:31 10° N visible
30 Nov ? 01:57:48 10° N 02:03:24 23° NE 02:09:12 10° E visible
30 Nov ? 03:50:51 10° N 03:58:15 74° ENE 04:06:06 10° SSE visible
30 Nov ? 18:45:59 11° N 18:45:59 11° N 18:46:18 10° N visible
30 Nov ? 20:38:33 11° N 20:38:33 11° N 20:38:54 10° N visible
01 Dec ? 00:30:12 10° NNE 00:31:15 10° NNE 00:32:20 10° NE visible
01 Dec ? 02:21:22 10° N 02:27:47 31° ENE 02:34:28 10° ESE visible
01 Dec ? 04:14:39 10° NNW 04:22:04 81° W 04:29:57 10° S visible
01 Dec?17:16:54NNE17:16:54NNE17:00:22Svisible
01 Dec ? 19:09:28 12° N 19:09:28 12° N 19:09:59 10° N visible
02 Dec ? 00:52:33 10° N 00:56:06 14° NE 00:59:43 10° ENE visible
02 Dec ? 02:45:01 10° N 02:52:00 42° ENE 02:59:21 10° SE visible
02 Dec ? 04:38:32 10° NNW 04:45:46 58° W 04:53:27 10° SSW visible
02 Dec?15:47:48NNE15:47:48NNE15:32:33SEvisible
02 Dec ? 17:40:22 10° NNE 17:40:22 10° NNE 17:40:26 10° NNE visible
02 Dec ? 19:32:56 12° N 19:32:56 12° N 19:33:37 10° N visible
03 Dec ? 01:15:51 10° N 01:20:47 18° NE 01:25:52 10° E visible
03 Dec ? 03:08:43 10° N 03:16:03 58° ENE 03:23:52 10° SSE visible
03 Dec ? 16:11:13 - NNE 16:11:13 - NNE 15:57:30 10° SSE visible
03 Dec ? 17:49:56 10° SSW 18:03:47 12° N 18:04:14 10° N visible
03 Dec ? 19:56:22 12° N 19:56:22 12° N 19:57:08 10° N visible
04 Dec ? 01:39:20 10° N 01:45:17 25° NE 01:51:29 10° ESE visible
04 Dec ? 03:32:28 10° NNW 03:39:59 81° ENE 03:48:00 10° SSE visible
04 Dec?14:42:02NNE14:42:02NNE14:29:51ESEvisible
04 Dec ? 16:20:31 10° SSE 16:34:36 - NNE 16:22:34 20° SSE visible
04 Dec ? 18:14:17 10° SW 18:27:10 13° N 18:27:58 10° N visible
04 Dec ? 20:19:43 11° NNW 20:19:43 11° NNW 20:20:28 10° N visible
05 Dec ? 00:11:00 10° NNE 00:13:16 11° NNE 00:15:33 10° NE visible
05 Dec ? 02:02:56 10° N 02:09:37 34° ENE 02:16:39 10° ESE visible
05 Dec ? 03:56:18 10° NNW 04:03:46 74° W 04:11:46 10° S visible
05 Dec ? 14:54:16 10° ESE 15:05:20 - NNE 14:55:03 12° ESE visible
05 Dec ? 16:43:54 10° S 16:57:53 12° NNE 16:58:18 10° NNE visible
05 Dec ? 18:39:01 10° WSW 18:50:26 15° N 18:51:39 10° N visible
05 Dec ? 20:42:59 10° NNW 20:42:59 10° NNW 20:43:04 10° NNW visible
06 Dec ? 00:33:57 10° N 00:38:03 15° NE 00:42:17 10° ENE visible
06 Dec ? 02:26:36 10° N 02:33:47 46° ENE 02:41:26 10° SE visible
06 Dec ? 04:20:11 10° NNW 04:27:26 53° W 04:35:10 10° SSW visible
06 Dec ? 15:16:20 10° SE 15:28:28 - NNE 15:20:27 25° ESE visible
06 Dec ? 17:07:39 10° SSW 17:21:01 15° N 17:22:09 10° N visible
06 Dec ? 19:04:09 10° W 19:13:32 15° N 19:15:16 10° N visible
07 Dec ? 00:57:20 10° N 01:02:42 20° NE 01:08:16 10° E visible
07 Dec ? 02:50:19 10° N 02:57:50 64° ENE 03:05:51 10° SSE visible
07 Dec ? 04:44:11 10° NNW 04:50:58 38° W 04:58:11 10° SSW visible
07 Dec ? 15:38:58 10° SSE 15:45:30 40° E 15:52:06 10° NNE visible
07 Dec ? 17:31:44 10° SSW 17:38:45 56° WNW 17:45:56 10° N visible
07 Dec ? 19:29:42 10° W 19:36:12 15° NNW 19:38:47 10° N visible
08 Dec ? 01:20:53 10° N 01:27:10 27° NE 01:33:45 10° ESE visible
08 Dec ? 03:14:05 10° NNW 03:21:43 87° ENE 03:29:54 10° S visible
08 Dec ? 14:14:01 10° E 14:17:16 14° ENE 14:20:32 10° NE visible
08 Dec ? 16:02:03 10° SSE 16:09:02 57° E 16:16:07 10° NNE visible
08 Dec ? 17:56:11 10° SW 18:02:50 40° WNW 18:09:40 10° N visible
08 Dec ? 19:55:48 10° WNW 19:58:55 13° NW 20:02:05 10° N visible
08 Dec ? 23:52:11 10° N 23:55:16 13° NNE 23:58:23 10° ENE visible
